Weather History for Hamilton, OH

Change the Weather History Date:

Sunday, February 3, 2013

  Actual Average (KCVG) Record (KCVG)
Temperature  
Mean Temperature 20 °F 32 °F  
Max Temperature 28 °F 40 °F 66 °F (1883)
Min Temperature 10 °F 24 °F -9 °F (1985)
Degree Days  
Heating Degree Days 45 33  
Month to date heating degree days 99  
Since 1 July heating degree days 3071  
Cooling Degree Days 0 0  
Month to date cooling degree days 0  
Year to date cooling degree days 0  
Moisture  
Dew Point 14 °F    
Average Humidity 71    
Maximum Humidity 84    
Minimum Humidity 60    
Precipitation  
Precipitation 0.00 in 0.11 in 1.34 in (1887)
Month to date precipitation 0.32  
Year to date precipitation 3.32  
Snow  
Snow 0.00 in 0.30 in 5.70 in (1995)
Month to date snowfall 0.9  
Since 1 July snowfall 13.0  
Snow Depth -    
Sea Level Pressure  
Sea Level Pressure 30.05 in    
Wind  
Wind Speed 7 mph (West)    
Max Wind Speed 12 mph    
Max Gust Speed 16 mph    
Visibility 9 miles    
Events Snow    
T = Trace of Precipitation, MM = Missing Value Source: NWS Daily Summary

Daily Weather History Graph

Daily Weather History Graph

Search for Another Location

Airport:

Trip Planner

Search our weather history database for the weather conditions in past years. The results will help you decide how hot, cold, wet, or windy it might be!

Date:

Astronomy

Feb. 03, 2013 Rise Set
Actual Time 7:43 AM EST 6:01 PM EST
Civil Twilight 7:14 AM EST 6:29 PM EST
Nautical Twilight 6:42 AM EST 7:01 PM EST
Astronomical Twilight 6:11 AM EST 7:32 PM EST
Moon 1:09 AM EST (2/3) 11:38 AM EST (2/3)
Length of Visible Light 11h 14m
Length of Day
10h 18m
Waning Gibbous, 49% of the Moon is Illuminated
Feb 3
Waning Gibbous
Feb 10
New
Feb 17
First Quarter
Feb 25
Full
Mar 4
Last Quarter

Hourly Weather History & Observations

Time (EST) Temp. Windchill Dew Point Humidity Pressure Visibility Wind Dir Wind Speed Gust Speed Precip Events Conditions
12:53 AM 28.0 °F 22.8 °F 21.9 °F 78% 30.04 in 10.0 mi West 4.6 mph - N/A   Overcast
1:11 AM 28.4 °F 24.6 °F 21.2 °F 74% 30.01 in 8.0 mi West 3.5 mph - N/A   Overcast
1:53 AM 28.0 °F - 23.0 °F 81% 30.02 in 9.0 mi Calm Calm - N/A   Overcast
2:53 AM 25.0 °F 15.5 °F 18.0 °F 75% 30.02 in 9.0 mi West 9.2 mph 16.1 mph N/A   Overcast
3:33 AM 24.8 °F 15.3 °F 15.8 °F 69% 29.99 in 10.0 mi WNW 9.2 mph - N/A   Overcast
3:53 AM 23.0 °F 15.8 °F 15.1 °F 72% 30.01 in 10.0 mi West 5.8 mph - N/A   Overcast
4:04 AM 23.0 °F 17.0 °F 15.8 °F 74% 29.97 in 10.0 mi West 4.6 mph - N/A   Overcast
4:53 AM 21.0 °F 11.4 °F 12.9 °F 71% 29.99 in 10.0 mi WNW 8.1 mph - N/A   Overcast
5:46 AM 19.4 °F 8.6 °F 8.6 °F 63% 29.97 in 10.0 mi WNW 9.2 mph - N/A   Mostly Cloudy
5:53 AM 19.0 °F 9.0 °F 9.0 °F 65% 29.99 in 10.0 mi West 8.1 mph - N/A   Mostly Cloudy
6:53 AM 18.0 °F 6.9 °F 7.0 °F 62% 29.99 in 10.0 mi West 9.2 mph - N/A   Overcast
7:53 AM 17.1 °F 6.6 °F 6.1 °F 62% 30.01 in 10.0 mi West 8.1 mph - N/A   Overcast
8:53 AM 17.1 °F 6.6 °F 8.1 °F 68% 30.03 in 8.0 mi West 8.1 mph 16.1 mph 0.00 in Snow Light Snow
9:53 AM 18.0 °F 6.9 °F 9.0 °F 68% 30.04 in 10.0 mi West 9.2 mph 16.1 mph 0.00 in   Overcast
10:53 AM 19.0 °F 11.1 °F 9.0 °F 65% 30.04 in 10.0 mi West 5.8 mph - N/A   Overcast
11:53 AM 21.0 °F 10.6 °F 10.9 °F 65% 30.04 in 10.0 mi West 9.2 mph - N/A   Overcast
12:38 PM 23.0 °F 14.7 °F 12.2 °F 63% 30.00 in 10.0 mi West 6.9 mph - N/A   Overcast
12:53 PM 23.0 °F 14.7 °F 10.9 °F 60% 30.03 in 10.0 mi West 6.9 mph - N/A   Overcast
1:01 PM 23.0 °F 13.1 °F 12.2 °F 63% 30.00 in 10.0 mi West 9.2 mph - N/A   Overcast
1:53 PM 23.0 °F 13.9 °F 12.0 °F 63% 30.04 in 10.0 mi West 8.1 mph - N/A   Overcast
2:35 PM 24.8 °F 16.1 °F 14.0 °F 64% 30.02 in 10.0 mi WNW 8.1 mph - N/A   Overcast
2:53 PM 24.1 °F 14.4 °F 14.0 °F 65% 30.05 in 7.0 mi West 9.2 mph - 0.00 in Snow Light Snow
3:30 PM 24.8 °F 14.0 °F 15.8 °F 69% 30.05 in 6.0 mi West 11.5 mph - 0.00 in Snow Light Snow
3:38 PM 24.8 °F 15.3 °F 15.8 °F 69% 30.05 in 6.0 mi West 9.2 mph - 0.00 in Snow Light Snow
3:53 PM 24.1 °F 13.7 °F 16.0 °F 71% 30.08 in 6.0 mi West 10.4 mph 16.1 mph 0.00 in Snow Light Snow
4:34 PM 24.8 °F 14.6 °F 15.8 °F 69% 30.06 in 8.0 mi West 10.4 mph 16.1 mph 0.00 in   Overcast
4:53 PM 25.0 °F 15.5 °F 17.1 °F 72% 30.10 in 10.0 mi West 9.2 mph - 0.00 in   Overcast
5:01 PM 24.8 °F 15.3 °F 17.6 °F 74% 30.07 in 10.0 mi West 9.2 mph 16.1 mph N/A   Overcast
5:39 PM 24.8 °F 16.9 °F 17.6 °F 74% 30.08 in 6.0 mi West 6.9 mph - 0.00 in   Haze
5:53 PM 25.0 °F 17.1 °F 18.0 °F 75% 30.11 in 6.0 mi West 6.9 mph - 0.00 in   Haze
6:53 PM 24.1 °F 16.0 °F 19.0 °F 81% 30.13 in 2.5 mi West 6.9 mph - 0.00 in Snow Light Snow
7:02 PM 24.8 °F 17.9 °F 19.4 °F 80% 30.10 in 3.0 mi West 5.8 mph - 0.00 in Snow Light Snow
7:53 PM 23.0 °F 13.1 °F 18.0 °F 81% 30.14 in 9.0 mi West 9.2 mph - 0.00 in   Scattered Clouds
8:53 PM 23.0 °F 14.7 °F 15.1 °F 72% 30.17 in 10.0 mi West 6.9 mph - N/A   Clear
9:53 PM 18.0 °F 12.7 °F 12.9 °F 81% 30.16 in 10.0 mi WSW 3.5 mph - N/A   Clear
10:53 PM 12.9 °F - 9.0 °F 84% 30.17 in 8.0 mi Calm Calm - N/A   Clear
11:53 PM 10.0 °F - 6.1 °F 84% 30.17 in 7.0 mi Calm Calm - N/A   Clear